Year,Month,Day,Hour,Minute,Value (Times are PST for windspeed in km/hr)
2015,02,07,00,00,12.00
2015,02,07,00,01,10.30
2015,02,07,00,02,9.20
2015,02,07,00,03,14.80
2015,02,07,00,04,16.00
2015,02,07,00,05,11.30
2015,02,07,00,06,15.10
2015,02,07,00,07,14.80
2015,02,07,00,08,12.50
2015,02,07,00,09,19.20
2015,02,07,00,10,17.30
2015,02,07,00,11,14.20
2015,02,07,00,12,14.10
2015,02,07,00,13,13.60
2015,02,07,00,14,18.50
2015,02,07,00,15,12.30
2015,02,07,00,16,13.60
2015,02,07,00,17,11.50
2015,02,07,00,18,12.30
2015,02,07,00,19,16.50
2015,02,07,00,20,9.40
2015,02,07,00,21,9.00
2015,02,07,00,22,10.30
2015,02,07,00,23,8.50
2015,02,07,00,24,10.70
2015,02,07,00,25,11.80
2015,02,07,00,26,12.90
2015,02,07,00,27,13.20
2015,02,07,00,28,12.30
2015,02,07,00,29,12.00
2015,02,07,00,30,12.10
2015,02,07,00,31,6.10
2015,02,07,00,32,11.10
2015,02,07,00,33,13.20
2015,02,07,00,34,14.90
2015,02,07,00,35,13.60
2015,02,07,00,36,11.80
2015,02,07,00,37,14.00
2015,02,07,00,38,13.30
2015,02,07,00,39,11.80
2015,02,07,00,40,3.90
2015,02,07,00,41,13.90
2015,02,07,00,42,17.30
2015,02,07,00,43,14.20
2015,02,07,00,44,12.70
2015,02,07,00,45,13.20
2015,02,07,00,46,14.70
2015,02,07,00,47,13.60
2015,02,07,00,48,16.10
2015,02,07,00,49,17.70
2015,02,07,00,50,10.90
2015,02,07,00,51,11.00
2015,02,07,00,52,16.50
2015,02,07,00,53,12.00
2015,02,07,00,54,11.10
2015,02,07,00,55,11.70
2015,02,07,00,56,10.30
2015,02,07,00,57,12.90
2015,02,07,00,58,11.30
2015,02,07,00,59,10.70
2015,02,07,01,00,13.90
2015,02,07,01,01,6.20
2015,02,07,01,02,6.10
2015,02,07,01,03,7.80
2015,02,07,01,04,9.70
2015,02,07,01,05,7.70
2015,02,07,01,06,8.50
2015,02,07,01,07,6.40
2015,02,07,01,08,3.10
2015,02,07,01,09,2.90
2015,02,07,01,10,4.70
2015,02,07,01,11,5.20
2015,02,07,01,12,19.10
2015,02,07,01,13,12.70
2015,02,07,01,14,8.20
2015,02,07,01,15,10.20
2015,02,07,01,16,15.50
2015,02,07,01,17,13.60
2015,02,07,01,18,17.60
2015,02,07,01,19,15.90
2015,02,07,01,20,18.90
2015,02,07,01,21,15.30
2015,02,07,01,22,11.30
2015,02,07,01,23,21.50
2015,02,07,01,24,14.80
2015,02,07,01,25,18.60
2015,02,07,01,26,15.50
2015,02,07,01,27,10.70
2015,02,07,01,28,13.80
2015,02,07,01,29,14.60
2015,02,07,01,30,12.90
2015,02,07,01,31,9.80
2015,02,07,01,32,15.50
2015,02,07,01,33,15.50
2015,02,07,01,34,21.20
2015,02,07,01,35,12.40
2015,02,07,01,36,13.20
2015,02,07,01,37,15.30
2015,02,07,01,38,17.30
2015,02,07,01,39,13.80
2015,02,07,01,40,13.50
2015,02,07,01,41,12.70
2015,02,07,01,42,15.70
2015,02,07,01,43,17.10
2015,02,07,01,44,14.90
2015,02,07,01,45,8.60
2015,02,07,01,46,11.30
2015,02,07,01,47,11.30
2015,02,07,01,48,13.30
2015,02,07,01,49,13.90
2015,02,07,01,50,13.90
2015,02,07,01,51,13.50
2015,02,07,01,52,18.50
2015,02,07,01,53,10.70
2015,02,07,01,54,14.00
2015,02,07,01,55,7.70
2015,02,07,01,56,12.20
2015,02,07,01,57,17.30
2015,02,07,01,58,9.10
2015,02,07,01,59,9.10
2015,02,07,02,00,12.80
2015,02,07,02,01,10.10
2015,02,07,02,02,6.60
2015,02,07,02,03,12.10
2015,02,07,02,04,12.10
2015,02,07,02,05,19.80
2015,02,07,02,06,19.80
2015,02,07,02,07,10.60
2015,02,07,02,08,14.30
2015,02,07,02,09,10.00
2015,02,07,02,10,10.50
2015,02,07,02,11,11.20
2015,02,07,02,12,13.40
2015,02,07,02,13,12.40
2015,02,07,02,14,11.60
2015,02,07,02,15,12.40
2015,02,07,02,16,6.40
2015,02,07,02,17,9.00
2015,02,07,02,18,11.00
2015,02,07,02,19,9.90
2015,02,07,02,20,1.80
2015,02,07,02,21,7.60
2015,02,07,02,22,7.20
2015,02,07,02,23,13.20
2015,02,07,02,24,11.00
2015,02,07,02,25,8.50
2015,02,07,02,26,13.50
2015,02,07,02,27,10.50
2015,02,07,02,28,3.10
2015,02,07,02,29,11.20
2015,02,07,02,30,11.30
2015,02,07,02,31,14.10
2015,02,07,02,32,9.90
2015,02,07,02,33,13.10
2015,02,07,02,34,8.10
2015,02,07,02,35,5.30
2015,02,07,02,36,7.30
2015,02,07,02,37,7.40
2015,02,07,02,38,15.50
2015,02,07,02,39,1.80
2015,02,07,02,40,9.60
2015,02,07,02,41,8.60
2015,02,07,02,42,6.20
2015,02,07,02,43,4.20
2015,02,07,02,44,0.80
2015,02,07,02,45,0.80
2015,02,07,02,46,1.20
2015,02,07,02,47,1.20
2015,02,07,02,48,3.30
2015,02,07,02,49,2.40
2015,02,07,02,50,4.10
2015,02,07,02,51,0.60
2015,02,07,02,52,0.10
2015,02,07,02,53,0.80
2015,02,07,02,54,7.30
2015,02,07,02,55,1.20
2015,02,07,02,56,0.60
2015,02,07,02,57,6.10
2015,02,07,02,58,9.00
2015,02,07,02,59,5.50
2015,02,07,03,00,3.30
2015,02,07,03,01,5.80
2015,02,07,03,02,2.80
2015,02,07,03,06,4.00
2015,02,07,03,07,4.50
2015,02,07,03,08,8.10
2015,02,07,03,09,12.90
2015,02,07,03,10,8.80
2015,02,07,03,11,12.30
2015,02,07,03,12,6.70
2015,02,07,03,13,1.50
2015,02,07,03,14,1.60
2015,02,07,03,15,3.40
2015,02,07,03,16,0.40
2015,02,07,03,17,3.20
2015,02,07,03,18,3.30
2015,02,07,03,19,4.30
2015,02,07,03,20,6.40
2015,02,07,03,21,2.90
2015,02,07,03,22,0.00
2015,02,07,03,23,0.00
2015,02,07,03,24,1.00
2015,02,07,03,25,0.00
2015,02,07,03,26,0.00
2015,02,07,03,27,1.90
2015,02,07,03,28,0.00
2015,02,07,03,29,0.10
2015,02,07,03,30,0.00
2015,02,07,03,31,0.10
2015,02,07,03,32,0.00
2015,02,07,03,33,0.00
2015,02,07,03,34,0.00
2015,02,07,03,35,0.00
2015,02,07,03,36,0.20
2015,02,07,03,37,5.60
2015,02,07,03,38,1.50
2015,02,07,03,39,0.00
2015,02,07,03,40,0.80
2015,02,07,03,41,0.90
2015,02,07,03,42,0.00
2015,02,07,03,43,0.00
2015,02,07,03,44,0.00
2015,02,07,03,45,0.10
2015,02,07,03,46,0.00
2015,02,07,03,47,1.20
2015,02,07,03,48,0.20
2015,02,07,03,49,0.60
2015,02,07,03,50,1.60
2015,02,07,03,51,0.00
2015,02,07,03,52,0.00
2015,02,07,03,53,0.00
2015,02,07,03,54,0.00
2015,02,07,03,55,0.00
2015,02,07,03,56,0.00
2015,02,07,03,57,0.00
2015,02,07,03,58,0.00
2015,02,07,03,59,0.00
2015,02,07,04,00,0.00
2015,02,07,04,01,0.00
2015,02,07,04,02,0.00
2015,02,07,04,03,1.20
2015,02,07,04,04,1.60
2015,02,07,04,05,1.60
2015,02,07,04,06,1.60
2015,02,07,04,07,1.60
2015,02,07,04,08,1.70
2015,02,07,04,09,4.90
2015,02,07,04,10,5.70
2015,02,07,04,11,4.80
2015,02,07,04,12,6.20
2015,02,07,04,13,5.40
2015,02,07,04,14,3.70
2015,02,07,04,15,4.40
2015,02,07,04,16,9.30
2015,02,07,04,17,6.40
2015,02,07,04,18,1.20
2015,02,07,04,19,0.00
2015,02,07,04,20,0.30
2015,02,07,04,21,2.70
2015,02,07,04,22,14.60
2015,02,07,04,23,2.20
2015,02,07,04,24,2.10
2015,02,07,04,25,0.30
2015,02,07,04,26,0.00
2015,02,07,04,27,0.90
2015,02,07,04,28,0.20
2015,02,07,04,29,0.00
2015,02,07,04,30,1.90
2015,02,07,04,31,0.90
2015,02,07,04,32,0.10
2015,02,07,04,33,0.00
2015,02,07,04,34,0.00
2015,02,07,04,35,0.00
2015,02,07,04,36,2.10
2015,02,07,04,37,1.50
2015,02,07,04,38,2.00
2015,02,07,04,39,0.50
2015,02,07,04,40,0.10
2015,02,07,04,41,0.00
2015,02,07,04,42,0.10
2015,02,07,04,43,0.00
2015,02,07,04,44,0.00
2015,02,07,04,45,0.00
2015,02,07,04,46,0.00
2015,02,07,04,47,0.00
2015,02,07,04,48,0.10
2015,02,07,04,49,1.90
2015,02,07,04,50,0.00
2015,02,07,04,51,0.00
2015,02,07,04,52,0.00
2015,02,07,04,53,0.00
2015,02,07,04,54,0.00
2015,02,07,04,55,0.20
2015,02,07,04,56,1.70
2015,02,07,04,57,2.70
2015,02,07,04,58,0.40
2015,02,07,04,59,2.40
2015,02,07,05,00,8.10
2015,02,07,05,01,6.20
2015,02,07,05,02,0.90
2015,02,07,05,03,0.00
2015,02,07,05,04,0.00
2015,02,07,05,05,0.10
2015,02,07,05,06,1.80
2015,02,07,05,07,0.00
2015,02,07,05,08,1.10
2015,02,07,05,09,0.10
2015,02,07,05,10,0.00
2015,02,07,05,11,0.10
2015,02,07,05,12,0.70
2015,02,07,05,13,0.00
2015,02,07,05,14,0.00
2015,02,07,05,15,0.00
2015,02,07,05,16,0.00
2015,02,07,05,17,0.00
2015,02,07,05,18,0.00
2015,02,07,05,19,0.00
2015,02,07,05,20,0.00
2015,02,07,05,21,0.00
2015,02,07,05,22,0.00
2015,02,07,05,23,0.10
2015,02,07,05,24,0.00
2015,02,07,05,25,0.00
2015,02,07,05,26,0.00
2015,02,07,05,27,1.40
2015,02,07,05,28,4.40
2015,02,07,05,29,3.20
2015,02,07,05,30,3.40
2015,02,07,05,31,0.10
2015,02,07,05,32,1.80
2015,02,07,05,33,0.00
2015,02,07,05,34,0.00
2015,02,07,05,35,0.10
2015,02,07,05,36,1.10
2015,02,07,05,37,0.10
2015,02,07,05,38,0.30
2015,02,07,05,39,3.10
2015,02,07,05,40,0.00
2015,02,07,05,41,0.00
2015,02,07,05,42,0.00
2015,02,07,05,43,3.80
2015,02,07,05,44,6.40
2015,02,07,05,45,1.00
2015,02,07,05,46,0.00
2015,02,07,05,47,0.90
2015,02,07,05,48,1.80
2015,02,07,05,49,0.00
2015,02,07,05,50,0.00
2015,02,07,05,51,0.00
2015,02,07,05,52,2.90
2015,02,07,05,53,0.10
2015,02,07,05,54,1.00
2015,02,07,05,55,0.50
2015,02,07,05,56,0.00
2015,02,07,05,57,0.00
2015,02,07,05,58,0.00
2015,02,07,05,59,0.00
2015,02,07,06,00,0.00
2015,02,07,06,01,0.00
2015,02,07,06,02,0.00
2015,02,07,06,03,0.00
2015,02,07,06,04,0.00
2015,02,07,06,05,0.00
2015,02,07,06,06,0.00
2015,02,07,06,07,0.00
2015,02,07,06,08,0.00
2015,02,07,06,09,0.10
2015,02,07,06,10,2.50
2015,02,07,06,11,3.90
2015,02,07,06,12,3.00
2015,02,07,06,13,5.60
2015,02,07,06,14,1.10
2015,02,07,06,15,0.00
2015,02,07,06,16,0.00
2015,02,07,06,17,0.00
2015,02,07,06,18,0.00
2015,02,07,06,19,0.00
2015,02,07,06,20,0.00
2015,02,07,06,21,0.00
2015,02,07,06,22,0.00
2015,02,07,06,23,0.00
2015,02,07,06,24,0.00
2015,02,07,06,25,0.00
2015,02,07,06,26,0.00
2015,02,07,06,27,0.00
2015,02,07,06,28,0.00
2015,02,07,06,29,0.00
2015,02,07,06,30,0.00
2015,02,07,06,31,0.00
2015,02,07,06,32,0.00
2015,02,07,06,33,0.00
2015,02,07,06,34,0.00
2015,02,07,06,35,0.00
2015,02,07,06,36,0.10
2015,02,07,06,37,0.10
2015,02,07,06,38,0.70
2015,02,07,06,39,0.00
2015,02,07,06,40,0.00
2015,02,07,06,41,0.00
2015,02,07,06,42,0.00
2015,02,07,06,43,0.00
2015,02,07,06,44,0.10
2015,02,07,06,45,0.00
2015,02,07,06,46,0.00
2015,02,07,06,47,0.00
2015,02,07,06,48,0.10
2015,02,07,06,49,0.10
2015,02,07,06,50,0.00
2015,02,07,06,51,0.00
2015,02,07,06,52,0.00
2015,02,07,06,53,0.00
2015,02,07,06,54,0.00
2015,02,07,06,55,0.00
2015,02,07,06,56,0.00
2015,02,07,06,57,0.00
2015,02,07,06,58,0.00
2015,02,07,06,59,0.00
2015,02,07,07,00,1.10
2015,02,07,07,01,0.70
2015,02,07,07,02,0.00
2015,02,07,07,03,0.00
2015,02,07,07,04,0.00
2015,02,07,07,05,0.00
2015,02,07,07,06,0.00
2015,02,07,07,07,0.00
2015,02,07,07,08,0.00
2015,02,07,07,09,0.00
2015,02,07,07,10,0.00
2015,02,07,07,11,0.00
2015,02,07,07,12,0.00
2015,02,07,07,13,0.00
2015,02,07,07,14,0.00
2015,02,07,07,15,0.00
2015,02,07,07,16,0.00
2015,02,07,07,17,0.00
2015,02,07,07,18,0.00
2015,02,07,07,19,0.00
2015,02,07,07,20,0.00
2015,02,07,07,21,0.00
2015,02,07,07,22,0.00
2015,02,07,07,23,0.00
2015,02,07,07,24,0.00
2015,02,07,07,25,0.00
2015,02,07,07,26,0.10
2015,02,07,07,27,0.00
2015,02,07,07,28,0.00
2015,02,07,07,29,0.00
2015,02,07,07,30,0.00
2015,02,07,07,31,0.00
2015,02,07,07,32,0.00
2015,02,07,07,33,0.00
2015,02,07,07,34,0.00
2015,02,07,07,35,0.00
2015,02,07,07,36,0.00
2015,02,07,07,37,0.00
2015,02,07,07,38,0.00
2015,02,07,07,39,0.00
2015,02,07,07,40,0.00
2015,02,07,07,41,0.00
2015,02,07,07,42,0.00
2015,02,07,07,43,0.00
2015,02,07,07,44,0.00
2015,02,07,07,45,0.00
2015,02,07,07,46,0.00
2015,02,07,07,47,0.00
2015,02,07,07,48,0.00
2015,02,07,07,49,0.00
2015,02,07,07,50,0.00
2015,02,07,07,51,0.00
2015,02,07,07,52,0.00
2015,02,07,07,53,0.00
2015,02,07,07,54,0.00
2015,02,07,07,55,0.00
2015,02,07,07,56,0.00
2015,02,07,07,57,0.00
2015,02,07,07,58,0.00
2015,02,07,07,59,0.00
2015,02,07,08,00,0.10
2015,02,07,08,01,0.00
2015,02,07,08,02,0.00
2015,02,07,08,03,0.00
2015,02,07,08,04,0.00
2015,02,07,08,05,0.00
2015,02,07,08,06,0.10
2015,02,07,08,07,0.20
2015,02,07,08,08,0.00
2015,02,07,08,09,0.00
2015,02,07,08,10,0.00
2015,02,07,08,11,0.00
2015,02,07,08,12,0.00
2015,02,07,08,13,0.50
2015,02,07,08,14,0.00
2015,02,07,08,15,0.00
2015,02,07,08,16,0.00
2015,02,07,08,17,0.00
2015,02,07,08,18,0.00
2015,02,07,08,19,0.00
2015,02,07,08,20,0.10
2015,02,07,08,21,0.00
2015,02,07,08,22,0.10
2015,02,07,08,23,2.40
2015,02,07,08,24,3.00
2015,02,07,08,25,1.70
2015,02,07,08,26,0.00
2015,02,07,08,27,0.10
2015,02,07,08,28,0.00
2015,02,07,08,29,0.00
2015,02,07,08,30,0.10
2015,02,07,08,31,0.00
2015,02,07,08,32,0.00
2015,02,07,08,33,0.00
2015,02,07,08,34,0.00
2015,02,07,08,35,0.00
2015,02,07,08,36,0.00
2015,02,07,08,37,0.00
2015,02,07,08,38,0.00
2015,02,07,08,39,0.00
2015,02,07,08,40,0.00
2015,02,07,08,41,0.00
2015,02,07,08,42,2.70
2015,02,07,08,43,0.00
2015,02,07,08,44,0.00
2015,02,07,08,45,0.00
2015,02,07,08,46,0.00
2015,02,07,08,47,0.00
2015,02,07,08,48,1.50
2015,02,07,08,49,1.50
2015,02,07,08,50,0.00
2015,02,07,08,51,1.50
2015,02,07,08,52,0.00
2015,02,07,08,53,0.00
2015,02,07,08,54,4.10
2015,02,07,08,55,3.80
2015,02,07,08,56,0.00
2015,02,07,08,57,0.10
2015,02,07,08,58,1.50
2015,02,07,08,59,6.60
2015,02,07,09,00,7.30
2015,02,07,09,01,0.20
2015,02,07,09,02,0.00
2015,02,07,09,03,0.00
2015,02,07,09,04,0.00
2015,02,07,09,05,2.30
2015,02,07,09,06,0.00
2015,02,07,09,07,8.60
2015,02,07,09,08,6.50
2015,02,07,09,09,0.80
2015,02,07,09,10,3.80
2015,02,07,09,11,5.90
2015,02,07,09,12,5.30
2015,02,07,09,13,0.40
2015,02,07,09,14,4.60
2015,02,07,09,15,0.00
2015,02,07,09,16,0.00
2015,02,07,09,17,1.00
2015,02,07,09,18,0.00
2015,02,07,09,19,0.00
2015,02,07,09,20,4.80
2015,02,07,09,21,8.50
2015,02,07,09,22,12.60
2015,02,07,09,23,10.20
2015,02,07,09,24,7.20
2015,02,07,09,25,7.00
2015,02,07,09,26,7.10
2015,02,07,09,27,0.20
2015,02,07,09,28,0.00
2015,02,07,09,29,0.80
2015,02,07,09,30,0.00
2015,02,07,09,31,3.20
2015,02,07,09,32,0.00
2015,02,07,09,33,0.50
2015,02,07,09,34,0.00
2015,02,07,09,35,0.00
2015,02,07,09,36,0.00
2015,02,07,09,37,0.00
2015,02,07,09,38,0.00
2015,02,07,09,39,1.50
2015,02,07,09,40,0.00
2015,02,07,09,41,2.10
2015,02,07,09,42,1.30
2015,02,07,09,43,0.00
2015,02,07,09,44,3.30
2015,02,07,09,45,5.10
2015,02,07,09,46,5.30
2015,02,07,09,47,5.10
2015,02,07,09,48,3.50
2015,02,07,09,49,2.20
2015,02,07,09,50,0.10
2015,02,07,09,51,7.90
2015,02,07,09,52,1.40
2015,02,07,09,53,0.00
2015,02,07,09,54,0.00
2015,02,07,09,55,0.00
2015,02,07,09,56,0.00
2015,02,07,09,57,0.00
2015,02,07,09,58,1.70
2015,02,07,09,59,1.50
2015,02,07,10,00,8.20
2015,02,07,10,01,9.30
2015,02,07,10,02,3.00
2015,02,07,10,03,2.50
2015,02,07,10,04,3.40
2015,02,07,10,05,3.20
2015,02,07,10,06,5.60
2015,02,07,10,07,5.60
2015,02,07,10,08,6.40
2015,02,07,10,09,0.80
2015,02,07,10,10,0.10
2015,02,07,10,11,0.00
2015,02,07,10,12,0.00
2015,02,07,10,13,2.90
2015,02,07,10,14,1.80
2015,02,07,10,15,1.50
2015,02,07,10,16,4.00
2015,02,07,10,17,6.10
2015,02,07,10,18,1.70
2015,02,07,10,19,0.40
2015,02,07,10,20,0.00
2015,02,07,10,21,0.60
2015,02,07,10,22,4.30
2015,02,07,10,23,0.00
2015,02,07,10,24,0.20
2015,02,07,10,25,2.40
2015,02,07,10,26,3.70
2015,02,07,10,27,7.10
2015,02,07,10,28,10.10
2015,02,07,10,29,5.40
2015,02,07,10,30,1.10
2015,02,07,10,31,0.10
2015,02,07,10,32,0.00
2015,02,07,10,33,0.90
2015,02,07,10,34,1.70
2015,02,07,10,35,4.90
2015,02,07,10,36,0.10
2015,02,07,10,37,4.60
2015,02,07,10,38,0.40
2015,02,07,10,39,0.00
2015,02,07,10,40,2.10
2015,02,07,10,41,2.10
2015,02,07,10,42,0.40
2015,02,07,10,43,6.40
2015,02,07,10,44,5.60
2015,02,07,10,45,10.90
2015,02,07,10,46,12.30
2015,02,07,10,47,10.30
2015,02,07,10,48,12.20
2015,02,07,10,49,13.30
2015,02,07,10,50,10.30
2015,02,07,10,51,12.10
2015,02,07,10,52,3.70
2015,02,07,10,53,8.80
2015,02,07,10,54,12.90
2015,02,07,10,55,9.90
2015,02,07,10,56,12.60
2015,02,07,10,57,9.90
2015,02,07,10,58,14.30
2015,02,07,10,59,14.50
2015,02,07,11,00,11.90
2015,02,07,11,01,11.30
2015,02,07,11,02,16.60
2015,02,07,11,03,12.60
2015,02,07,11,04,15.90
2015,02,07,11,05,12.70
2015,02,07,11,06,11.90
2015,02,07,11,07,9.60
2015,02,07,11,08,12.20
2015,02,07,11,09,8.90
2015,02,07,11,10,7.30
2015,02,07,11,11,10.00
2015,02,07,11,12,15.60
2015,02,07,11,13,14.00
2015,02,07,11,14,18.50
2015,02,07,11,15,10.50
2015,02,07,11,16,9.10
2015,02,07,11,17,10.10
2015,02,07,11,18,14.20
2015,02,07,11,19,10.50
2015,02,07,11,20,14.30
2015,02,07,11,21,11.60
2015,02,07,11,22,16.90
2015,02,07,11,23,13.90
2015,02,07,11,24,13.20
2015,02,07,11,25,16.20
2015,02,07,11,26,14.90
2015,02,07,11,27,10.30
2015,02,07,11,28,10.40
2015,02,07,11,29,13.20
2015,02,07,11,30,14.00
2015,02,07,11,31,19.30
2015,02,07,11,32,17.50
2015,02,07,11,33,15.60
2015,02,07,11,34,22.10
2015,02,07,11,35,18.60
2015,02,07,11,36,18.10
2015,02,07,11,37,20.80
2015,02,07,11,38,23.40
2015,02,07,11,39,18.60
2015,02,07,11,40,25.90
2015,02,07,11,41,19.80
2015,02,07,11,42,19.40
2015,02,07,11,43,20.40
2015,02,07,11,44,17.50
2015,02,07,11,45,20.60
2015,02,07,11,46,20.20
2015,02,07,11,47,19.60
2015,02,07,11,48,25.00
2015,02,07,11,49,17.20
2015,02,07,11,50,26.70
2015,02,07,11,51,15.40
2015,02,07,11,52,15.60
2015,02,07,11,53,19.80
2015,02,07,11,54,23.10
2015,02,07,11,55,18.20
2015,02,07,11,56,21.60
2015,02,07,11,57,17.60
2015,02,07,11,58,19.70
2015,02,07,11,59,21.50
2015,02,07,12,00,27.80
2015,02,07,12,01,15.40
2015,02,07,12,02,15.70
2015,02,07,12,03,22.80
2015,02,07,12,04,14.80
2015,02,07,12,05,16.20
2015,02,07,12,06,16.70
2015,02,07,12,07,22.20
2015,02,07,12,08,20.00
2015,02,07,12,09,15.70
2015,02,07,12,10,21.50
2015,02,07,12,11,18.70
2015,02,07,12,12,19.10
2015,02,07,12,13,17.60
2015,02,07,12,14,20.60
2015,02,07,12,15,13.80
2015,02,07,12,16,15.90
2015,02,07,12,17,20.60
2015,02,07,12,18,21.20
2015,02,07,12,19,17.20
2015,02,07,12,20,21.20
2015,02,07,12,21,17.10
2015,02,07,12,22,18.40
2015,02,07,12,23,20.00
2015,02,07,12,24,12.50
2015,02,07,12,25,20.20
2015,02,07,12,26,26.10
2015,02,07,12,27,26.70
2015,02,07,12,28,22.10
2015,02,07,12,29,27.60
2015,02,07,12,30,19.80
2015,02,07,12,31,25.70
2015,02,07,12,32,19.30
2015,02,07,12,33,21.50
2015,02,07,12,34,19.00
2015,02,07,12,35,15.00
2015,02,07,12,36,25.90
2015,02,07,12,37,18.30
2015,02,07,12,38,16.90
2015,02,07,12,39,19.80
2015,02,07,12,40,19.70
2015,02,07,12,41,19.60
2015,02,07,12,42,26.80
2015,02,07,12,43,21.70
2015,02,07,12,44,16.50
2015,02,07,12,45,12.40
2015,02,07,12,46,15.20
2015,02,07,12,47,20.70
2015,02,07,12,48,14.50
2015,02,07,12,49,12.50
2015,02,07,12,50,19.30
2015,02,07,12,51,21.40
2015,02,07,12,52,18.50
2015,02,07,12,53,16.80
2015,02,07,12,54,16.30
2015,02,07,12,55,10.80
2015,02,07,12,56,24.40
2015,02,07,12,57,16.20
2015,02,07,12,58,13.60
2015,02,07,12,59,10.60
2015,02,07,13,00,22.20
2015,02,07,13,01,10.80
2015,02,07,13,02,15.90
2015,02,07,13,03,13.20
2015,02,07,13,04,16.30
2015,02,07,13,05,21.70
2015,02,07,13,06,19.20
2015,02,07,13,07,17.40
2015,02,07,13,08,18.70
2015,02,07,13,09,16.70
2015,02,07,13,10,15.10
2015,02,07,13,11,16.60
2015,02,07,13,12,13.80
2015,02,07,13,13,13.60
2015,02,07,13,14,14.80
2015,02,07,13,15,18.10
2015,02,07,13,16,16.70
2015,02,07,13,17,17.60
2015,02,07,13,18,18.50
2015,02,07,13,19,18.80
2015,02,07,13,20,18.80
2015,02,07,13,21,20.00
2015,02,07,13,22,17.70
2015,02,07,13,23,16.50
2015,02,07,13,24,20.40
2015,02,07,13,25,19.70
2015,02,07,13,26,14.10
2015,02,07,13,27,13.10
2015,02,07,13,28,15.40
2015,02,07,13,29,19.50
2015,02,07,13,30,15.40
2015,02,07,13,31,17.60
2015,02,07,13,32,15.90
2015,02,07,13,33,13.40
2015,02,07,13,34,23.70
2015,02,07,13,35,16.60
2015,02,07,13,36,17.50
2015,02,07,13,37,13.00
2015,02,07,13,38,15.90
2015,02,07,13,39,26.80
2015,02,07,13,40,21.00
2015,02,07,13,41,17.90
2015,02,07,13,42,17.00
2015,02,07,13,43,22.70
2015,02,07,13,44,24.90
2015,02,07,13,45,17.50
2015,02,07,13,46,17.70
2015,02,07,13,47,14.10
2015,02,07,13,48,14.20
2015,02,07,13,49,15.00
2015,02,07,13,50,12.20
2015,02,07,13,51,10.10
2015,02,07,13,52,12.60
2015,02,07,13,53,15.40
2015,02,07,13,54,15.00
2015,02,07,13,55,21.60
2015,02,07,13,56,15.90
2015,02,07,13,57,18.20
2015,02,07,13,58,19.10
2015,02,07,13,59,15.80
2015,02,07,14,00,12.30
2015,02,07,14,01,13.00
2015,02,07,14,02,11.10
2015,02,07,14,03,21.60
2015,02,07,14,04,17.60
2015,02,07,14,05,13.90
2015,02,07,14,06,11.20
2015,02,07,14,07,18.00
2015,02,07,14,08,13.40
2015,02,07,14,09,14.50
2015,02,07,14,10,12.30
2015,02,07,14,11,10.90
2015,02,07,14,12,16.20
2015,02,07,14,13,12.90
2015,02,07,14,14,14.60
2015,02,07,14,15,14.10
2015,02,07,14,16,10.80
2015,02,07,14,17,15.20
2015,02,07,14,18,9.30
2015,02,07,14,19,14.00
2015,02,07,14,20,10.10
2015,02,07,14,21,12.10
2015,02,07,14,22,11.00
2015,02,07,14,23,16.90
2015,02,07,14,24,12.10
2015,02,07,14,25,11.80
2015,02,07,14,26,9.70
2015,02,07,14,27,9.10
2015,02,07,14,28,11.20
2015,02,07,14,29,13.20
2015,02,07,14,30,9.80
2015,02,07,14,31,16.50
2015,02,07,14,32,12.10
2015,02,07,14,33,9.10
2015,02,07,14,34,18.00
2015,02,07,14,35,14.80
2015,02,07,14,36,14.60
2015,02,07,14,37,15.80
2015,02,07,14,38,13.00
2015,02,07,14,39,10.00
2015,02,07,14,40,16.50
2015,02,07,14,41,13.40
2015,02,07,14,42,10.30
2015,02,07,14,43,11.00
2015,02,07,14,44,18.80
2015,02,07,14,45,14.80
2015,02,07,14,46,8.10
2015,02,07,14,47,14.80
2015,02,07,14,48,11.30
2015,02,07,14,49,8.60
2015,02,07,14,50,9.40
2015,02,07,14,51,14.00
2015,02,07,14,52,17.40
2015,02,07,14,53,20.90
2015,02,07,14,54,20.30
2015,02,07,14,55,8.60
2015,02,07,14,56,16.20
2015,02,07,14,57,14.30
2015,02,07,14,58,11.20
2015,02,07,14,59,8.30
2015,02,07,15,00,12.60
2015,02,07,15,01,15.80
2015,02,07,15,02,12.60
2015,02,07,15,03,6.50
2015,02,07,15,04,6.50
2015,02,07,15,05,11.00
2015,02,07,15,06,11.70
2015,02,07,15,07,12.30
2015,02,07,15,08,12.80
2015,02,07,15,09,8.20
2015,02,07,15,10,7.00
2015,02,07,15,11,7.90
2015,02,07,15,12,10.70
2015,02,07,15,13,11.60
2015,02,07,15,14,6.50
2015,02,07,15,15,5.70
2015,02,07,15,16,11.30
2015,02,07,15,17,8.60
2015,02,07,15,18,5.10
2015,02,07,15,19,5.70
2015,02,07,15,20,5.30
2015,02,07,15,21,9.30
2015,02,07,15,22,11.00
2015,02,07,15,23,5.80
2015,02,07,15,24,17.70
2015,02,07,15,25,19.00
2015,02,07,15,26,9.70
2015,02,07,15,27,7.80
2015,02,07,15,28,8.80
2015,02,07,15,29,5.60
2015,02,07,15,30,1.80
2015,02,07,15,31,8.50
2015,02,07,15,32,14.30
2015,02,07,15,33,8.20
2015,02,07,15,34,5.90
2015,02,07,15,35,8.70
2015,02,07,15,36,15.00
2015,02,07,15,37,14.60
2015,02,07,15,38,12.40
2015,02,07,15,39,11.30
2015,02,07,15,40,15.20
2015,02,07,15,41,14.30
2015,02,07,15,42,9.20
2015,02,07,15,43,8.90
2015,02,07,15,44,16.00
2015,02,07,15,45,16.10
2015,02,07,15,46,19.60
2015,02,07,15,47,14.90
2015,02,07,15,48,14.90
2015,02,07,15,49,15.10
2015,02,07,15,50,14.20
2015,02,07,15,51,9.90
2015,02,07,15,52,9.40
2015,02,07,15,53,6.90
2015,02,07,15,54,10.90
2015,02,07,15,55,11.20
2015,02,07,15,56,10.80
2015,02,07,15,57,13.50
2015,02,07,15,58,11.80
2015,02,07,15,59,14.70
2015,02,07,16,00,16.10
2015,02,07,16,01,12.70
2015,02,07,16,02,15.20
2015,02,07,16,03,9.60
2015,02,07,16,04,18.30
2015,02,07,16,05,19.20
2015,02,07,16,06,16.30
2015,02,07,16,07,21.20
2015,02,07,16,08,12.30
2015,02,07,16,09,8.40
2015,02,07,16,10,11.30
2015,02,07,16,11,5.60
2015,02,07,16,12,4.40
2015,02,07,16,13,6.70
2015,02,07,16,14,10.10
2015,02,07,16,15,14.80
2015,02,07,16,16,14.50
2015,02,07,16,17,14.70
2015,02,07,16,18,16.70
2015,02,07,16,19,19.30
2015,02,07,16,20,14.80
2015,02,07,16,21,14.90
2015,02,07,16,22,22.30
2015,02,07,16,23,17.90
2015,02,07,16,24,11.30
2015,02,07,16,25,13.70
2015,02,07,16,26,10.50
2015,02,07,16,27,20.00
2015,02,07,16,28,12.60
2015,02,07,16,29,11.30
2015,02,07,16,30,8.40
2015,02,07,16,31,11.10
2015,02,07,16,32,12.10
2015,02,07,16,33,10.90
2015,02,07,16,34,13.60
2015,02,07,16,35,8.00
2015,02,07,16,36,11.90
2015,02,07,16,37,6.90
2015,02,07,16,38,12.80
2015,02,07,16,39,16.20
2015,02,07,16,40,13.10
2015,02,07,16,41,13.80
2015,02,07,16,42,10.50
2015,02,07,16,43,16.10
2015,02,07,16,44,9.20
2015,02,07,16,45,8.90
2015,02,07,16,46,13.50
2015,02,07,16,47,8.40
2015,02,07,16,48,15.30
2015,02,07,16,49,14.70
2015,02,07,16,50,14.10
2015,02,07,16,51,13.10
2015,02,07,16,52,13.80
2015,02,07,16,53,9.60
2015,02,07,16,54,10.10
2015,02,07,16,55,13.90
2015,02,07,16,56,16.70
2015,02,07,16,57,13.10
2015,02,07,16,58,10.80
2015,02,07,16,59,10.40
2015,02,07,17,00,13.90
2015,02,07,17,01,6.50
2015,02,07,17,02,16.90
2015,02,07,17,03,11.30
2015,02,07,17,04,11.00
2015,02,07,17,05,12.30
2015,02,07,17,06,8.90
2015,02,07,17,07,10.50
2015,02,07,17,08,8.70
2015,02,07,17,09,7.10
2015,02,07,17,10,5.70
2015,02,07,17,11,8.50
2015,02,07,17,12,9.20
2015,02,07,17,13,12.20
2015,02,07,17,14,11.60
2015,02,07,17,15,7.60
2015,02,07,17,16,11.60
2015,02,07,17,17,12.60
2015,02,07,17,18,4.10
2015,02,07,17,19,10.30
2015,02,07,17,20,7.50
2015,02,07,17,21,4.10
2015,02,07,17,22,13.80
2015,02,07,17,23,14.60
2015,02,07,17,24,8.00
2015,02,07,17,25,5.60
2015,02,07,17,26,2.40
2015,02,07,17,27,4.70
2015,02,07,17,28,8.50
2015,02,07,17,29,5.00
2015,02,07,17,30,6.90
2015,02,07,17,31,15.40
2015,02,07,17,32,10.70
2015,02,07,17,33,6.10
2015,02,07,17,34,10.10
2015,02,07,17,35,14.90
2015,02,07,17,36,14.90
2015,02,07,17,37,13.10
2015,02,07,17,38,11.30
2015,02,07,17,39,13.30
2015,02,07,17,40,10.40
2015,02,07,17,41,13.80
2015,02,07,17,42,13.50
2015,02,07,17,43,21.70
2015,02,07,17,44,19.90
2015,02,07,17,45,13.80
2015,02,07,17,46,16.70
2015,02,07,17,47,19.50
2015,02,07,17,48,19.80